Location: Emory University Observatory
(33.7903°N, 84.3267°W)
Time: 03:04:19
(UTC-04:00)

Vanguard 3 - Visible Passes

Search period start: 16 July 2018 00:00
Search period end: 26 July 2018 00:00
Orbit: 508 x 3264 km, 33.3° (Epoch: 15 July)

Date Brightness Start Highest point End Pass type
(mag) Time Alt. Az. Time Alt. Az. Time Alt. Az.
16 Jul 7.7 21:52:52 10° W 22:02:52 86° S 22:07:58 13° E visible
17 Jul 8.3 00:08:34 10° W 00:12:32 34° W 00:12:32 34° W visible
17 Jul 7.3 22:52:43 10° W 23:01:10 84° S 23:02:49 48° ESE visible
18 Jul 8.0 21:36:04 10° W 21:47:05 88° S 21:53:05 10° E visible
18 Jul 7.9 23:52:16 10° W 23:57:39 44° WSW 23:57:39 44° WSW visible
19 Jul 7.5 22:36:07 10° W 22:45:28 81° S 22:47:53 38° ESE visible
20 Jul 9.6 00:51:47 10° W 00:52:28 12° W 00:52:28 12° W visible
20 Jul 8.3 21:19:10 10° W 21:31:15 88° S 21:37:44 10° E visible
20 Jul 7.7 23:35:51 10° W 23:42:41 50° SW 23:42:41 50° SW visible
21 Jul 7.8 22:19:23 10° W 22:29:42 77° SSW 22:32:54 31° ESE visible
22 Jul 9.5 00:35:42 10° W 00:37:28 16° W 00:37:28 16° W visible
22 Jul 8.5 21:02:10 10° W 21:15:19 88° S 21:22:21 10° E visible
22 Jul 7.8 23:19:19 10° W 23:27:40 49° SSW 23:27:41 49° SSW visible
23 Jul 8.1 22:02:32 10° W 22:13:50 73° SSW 22:17:54 26° ESE visible
24 Jul 9.4 00:19:33 10° W 00:22:28 18° WSW 00:22:28 18° WSW visible
24 Jul 8.0 23:02:41 10° W 23:11:46 45° SSW 23:12:40 43° S visible
25 Jul 8.4 21:45:35 10° W 21:57:53 69° SSW 22:02:54 21° ESE visible
